Overview Statistics Trail Chart Weather Telemetry Raw packets
 

This is the latest recevied weather packets stored in our database for station/object K6CED. If no packets are shown the sender has not sent any weather packets the latest 10 day(s).

<< 104 105 106 107 108 109 110 >>
Time Temp. Humidity Pressure Rain* Wind** Luminosity Snow
1787881074 34.44° C 47% 1012.4 hPa 0 mm - 52 W/m² -
1787880770 34.44° C 47% 1012.4 hPa 0 mm - 60 W/m² -
1787880468 34.44° C 47% 1012.6 hPa 0 mm - 68 W/m² -
1787880162 35° C 46% 1012.7 hPa 0 mm - 77 W/m² -
1787879857 34.44° C 46% 1012.4 hPa 0 mm - 93 W/m² -
1787879553 35° C 46% 1012.6 hPa 0 mm - 95 W/m² -
1787879248 34.44° C 46% 1012.5 hPa 0 mm - 103 W/m² -
1787878945 35.56° C 45% 1012.3 hPa 0 mm - 96 W/m² -
1787878644 35.56° C 45% 1012.4 hPa 0 mm - 120 W/m² -
1787878339 36.11° C 44% 1012.4 hPa 0 mm - 136 W/m² -
1787878034 35.56° C 45% 1012.7 hPa 0 mm - 146 W/m² -
1787877731 36.11° C 44% 1012.7 hPa 0 mm - 147 W/m² -
1787877425 35.56° C 45% 1012.6 hPa 0 mm - 174 W/m² -
1787877122 35.56° C 46% 1012.7 hPa 0 mm - 191 W/m² -
1787876820 35.56° C 45% 1012.7 hPa 0 mm - 205 W/m² -
1787876515 35.56° C 46% 1012.7 hPa 0 mm - 216 W/m² -
1787876209 35° C 46% 1012.9 hPa 0 mm - 236 W/m² -
1787875904 35° C 47% 1012.9 hPa 0 mm - 258 W/m² -
1787875603 35° C 47% 1012.7 hPa 0 mm - 280 W/m² -
1787875298 35° C 47% 1012.8 hPa 0 mm - 301 W/m² -
1787874996 34.44° C 48% 1012.8 hPa 0 mm - 318 W/m² -
1787874692 34.44° C 47% 1013.1 hPa 0 mm - 323 W/m² -
1787874390 33.89° C 49% 1013 hPa 0 mm - 330 W/m² -
1787874085 32.78° C 50% 1013 hPa 0 mm - 296 W/m² -
1787873785 32.22° C 52% 1013.1 hPa 0 mm - 223 W/m² -

* Rain latest hour (hover to see other rain measurements)
** Current wind speed in m/s (hover to see current wind gust speed)